VK3GY-13 Weather Reports


Display with metric or nautical units.
time (UTC)temp
F
wind
direction
speed
MPH
gust
MPH
rain 1hr
in
rain 24hr
in
rain mn
in
humidity
%
barometer
mb
20260831114011 48 202 0.0 0.0 0.00 0.00 0.00 87 1025.4
20260831113011 48 202 0.0 0.0 0.00 0.00 0.00 86 1025.5
20260831112013 48 202 0.0 0.0 0.00 0.00 0.00 86 1025.5
20260831111011 48 202 0.0 0.0 0.00 0.00 0.00 85 1025.5
20260831110010 49 202 0.0 0.0 0.00 0.00 0.00 85 1025.6
20260831104011 49 202 0.0 0.0 0.00 0.00 0.00 84 1025.7
20260831103011 50 202 0.0 0.0 0.00 0.00 0.00 83 1025.7
20260831102011 50 202 0.0 0.0 0.00 0.00 0.00 82 1025.9
20260831100011 51 202 0.0 0.0 0.00 0.00 0.00 80 1026.0
20260831095011 52 202 0.0 0.0 0.00 0.00 0.00 79 1026.1
20260831094012 52 202 0.0 0.0 0.00 0.00 0.00 78 1026.1
20260831093011 53 202 0.0 0.0 0.00 0.00 0.00 77 1026.2
20260831092011 53 202 0.0 0.0 0.00 0.00 0.00 77 1026.2
20260831091011 54 202 0.0 0.0 0.00 0.00 0.00 76 1026.3
20260831090011 55 202 0.0 1.0 0.00 0.00 0.00 75 1026.4
20260831085011 55 202 1.0 2.0 0.00 0.00 0.00 74 1026.4
20260831084010 56 202 0.0 1.0 0.00 0.00 0.00 73 1026.4
20260831083011 57 202 0.0 0.0 0.00 0.00 0.00 73 1026.4
20260831081011 58 202 1.0 2.0 0.00 0.00 0.00 72 1026.3
20260831075011 60 202 0.0 2.0 0.00 0.00 0.00 70 1026.4
20260831074011 61 202 1.0 3.0 0.00 0.00 0.00 69 1026.4
20260831073011 62 202 2.0 3.0 0.00 0.00 0.00 67 1026.4
20260831072011 62 202 2.0 3.0 0.00 0.00 0.00 66 1026.4
20260831070011 63 202 1.0 3.0 0.00 0.00 0.00 65 1026.5
20260831065011 64 202 1.0 3.0 0.00 0.00 0.00 65 1026.7
20260831064010 64 202 2.0 3.0 0.00 0.00 0.00 66 1026.8
20260831062011 65 202 2.0 3.0 0.00 0.00 0.00 64 1026.9
20260831061011 66 202 2.0 3.0 0.00 0.00 0.00 64 1027.0
20260831060011 67 202 2.0 5.0 0.00 0.00 0.00 66 1027.0
20260831055011 67 202 2.0 3.0 0.00 0.00 0.00 65 1027.1
20260831053011 66 202 2.0 5.0 0.00 0.00 0.00 67 1027.2
20260831052013 65 202 3.0 3.0 0.00 0.00 0.00 68 1027.3
20260831050011 65 202 2.0 5.0 0.00 0.00 0.00 67 1027.7
20260831045011 66 202 2.0 5.0 0.00 0.00 0.00 67 1027.8
20260831044011 67 202 2.0 5.0 0.00 0.00 0.00 67 1028.0
20260831043011 66 202 1.0 5.0 0.00 0.00 0.00 66 1028.1
20260831042010 66 202 3.0 5.0 0.00 0.00 0.00 68 1028.3
20260831040012 65 202 3.0 6.0 0.00 0.00 0.00 69 1028.5
20260831035011 64 202 1.0 3.0 0.00 0.00 0.00 69 1028.6
20260831034011 63 202 2.0 5.0 0.00 0.00 0.00 69 1028.8
20260831033011 63 202 3.0 6.0 0.00 0.00 0.00 68 1029.1
20260831032011 63 202 2.0 3.0 0.00 0.00 0.00 68 1029.2
20260831031010 63 202 2.0 6.0 0.00 0.00 0.00 68 1029.3
20260831025011 65 202 3.0 5.0 0.00 0.00 0.00 68 1029.7
20260831023011 63 202 3.0 6.0 0.00 0.00 0.00 73 1030.0
20260831022011 62 202 2.0 3.0 0.00 0.00 0.00 74 1030.2
20260831021011 61 202 1.0 6.0 0.00 0.00 0.00 74 1030.4
20260831020011 60 202 2.0 3.0 0.00 0.00 0.00 76 1030.6
20260831015010 58 202 1.0 5.0 0.00 0.00 0.00 78 1030.8
20260831014011 57 202 3.0 5.0 0.00 0.00 0.00 78 1030.9
20260831013010 57 201 3.0 5.0 0.00 0.00 0.00 78 1030.9
20260831012011 57 201 1.0 5.0 0.00 0.00 0.00 79 1030.9
20260831011013 57 201 1.0 3.0 0.00 0.00 0.00 80 1031.0
20260831010010 56 201 2.0 5.0 0.00 0.00 0.00 80 1031.1
20260831005011 56 200 1.0 5.0 0.00 0.00 0.00 81 1031.2
20260831004011 56 200 2.0 5.0 0.00 0.00 0.00 82 1031.3
20260831003010 55 200 3.0 7.0 0.00 0.00 0.00 83 1031.3
20260831002011 55 198 3.0 7.0 0.00 0.00 0.00 84 1031.4
20260831000011 55 192 2.0 6.0 0.00 0.00 0.00 85 1031.4
20260830235011 55 190 3.0 6.0 0.00 0.00 0.00 85 1031.5
20260830234011 54 190 3.0 6.0 0.00 0.00 0.00 85 1031.4
20260830233011 55 190 3.0 5.0 0.00 0.00 0.00 85 1031.5
20260830232011 55 190 2.0 6.0 0.00 0.00 0.00 85 1031.5
20260830231010 55 189 2.0 5.0 0.00 0.00 0.00 84 1031.4
20260830230010 54 189 2.0 5.0 0.00 0.00 0.00 84 1031.4
20260830225011 54 189 2.0 3.0 0.00 0.00 0.00 84 1031.4
20260830223011 53 188 2.0 3.0 0.00 0.00 0.00 85 1031.5
20260830222012 53 188 2.0 3.0 0.00 0.00 0.00 86 1031.4
20260830221011 52 188 1.0 3.0 0.00 0.00 0.00 86 1031.5
20260830220010 52 188 0.0 0.0 0.00 0.00 0.00 87 1031.5
20260830215010 52 188 0.0 0.0 0.00 0.00 0.00 87 1031.4
20260830214011 51 188 0.0 0.0 0.00 0.00 0.00 87 1031.3
20260830213011 51 188 0.0 0.0 0.00 0.00 0.00 87 1031.2
20260830212011 51 188 0.0 0.0 0.00 0.00 0.00 87 1031.1
20260830211011 51 188 0.0 0.0 0.00 0.00 0.00 87 1031.0
20260830210011 51 188 0.0 0.0 0.00 0.00 0.00 87 1031.1
20260830205011 51 188 0.0 0.0 0.00 0.00 0.00 86 1031.1
20260830203010 51 188 0.0 0.0 0.00 0.00 0.00 86 1031.0
20260830202010 51 188 0.0 0.0 0.00 0.00 0.00 86 1031.0
20260830201011 51 188 0.0 0.0 0.00 0.00 0.00 85 1030.9
20260830200011 51 188 0.0 0.0 0.00 0.00 0.00 85 1030.9
20260830195010 51 188 0.0 0.0 0.00 0.00 0.00 85 1031.0
20260830194011 51 188 0.0 0.0 0.00 0.00 0.00 85 1031.0
20260830193011 52 188 0.0 0.0 0.00 0.00 0.00 85 1031.0
20260830191010 52 188 0.0 0.0 0.00 0.00 0.00 84 1030.9
20260830190012 52 188 0.0 0.0 0.00 0.00 0.00 84 1030.8
20260830185011 52 188 0.0 1.0 0.00 0.00 0.00 84 1030.9
20260830183011 52 188 0.0 3.0 0.00 0.00 0.00 84 1030.9
20260830182011 52 188 2.0 3.0 0.00 0.00 0.00 84 1030.9
20260830181011 52 188 1.0 6.0 0.00 0.00 0.00 84 1030.9
20260830180011 52 188 1.0 5.0 0.00 0.00 0.00 85 1030.9
20260830175011 52 188 2.0 3.0 0.00 0.00 0.00 85 1031.0
20260830174011 52 188 2.0 3.0 0.00 0.00 0.00 85 1031.0
20260830173011 52 188 1.0 5.0 0.00 0.00 0.00 85 1031.1
20260830172012 52 188 2.0 5.0 0.00 0.00 0.00 85 1031.1
20260830171010 52 188 2.0 5.0 0.00 0.00 0.00 85 1031.2
20260830170012 52 187 2.0 3.0 0.00 0.00 0.00 86 1031.2
20260830165011 52 187 2.0 5.0 0.00 0.00 0.00 86 1031.3
20260830164011 52 187 2.0 6.0 0.00 0.00 0.00 87 1031.3
20260830163011 52 187 3.0 6.0 0.00 0.00 0.00 87 1031.4
20260830162011 52 187 2.0 7.0 0.00 0.00 0.00 87 1031.6
20260830161010 52 186 3.0 7.0 0.00 0.00 0.00 88 1031.7
20260830160010 52 186 2.0 5.0 0.00 0.00 0.00 88 1031.7
20260830155011 52 186 2.0 5.0 0.00 0.00 0.00 89 1031.7
20260830154011 52 186 2.0 5.0 0.00 0.00 0.00 89 1031.7
20260830153010 52 186 2.0 3.0 0.00 0.00 0.00 89 1031.8
20260830152010 52 186 1.0 2.0 0.00 0.00 0.00 89 1031.6
20260830151011 52 186 1.0 3.0 0.00 0.00 0.00 89 1031.7
20260830150011 52 186 1.0 2.0 0.00 0.00 0.00 90 1031.7
20260830145012 53 186 1.0 3.0 0.00 0.00 0.00 89 1031.7
20260830142011 53 186 2.0 3.0 0.00 0.00 0.00 90 1031.8
20260830141011 53 186 2.0 3.0 0.00 0.00 0.00 90 1031.9
20260830140013 53 186 2.0 3.0 0.00 0.00 0.00 90 1031.9
20260830135011 53 186 2.0 3.0 0.00 0.00 0.00 90 1031.9
20260830134011 52 186 2.0 3.0 0.00 0.00 0.00 90 1032.0
20260830133011 52 186 2.0 5.0 0.00 0.00 0.00 90 1032.1
20260830132010 52 186 3.0 5.0 0.00 0.00 0.00 90 1032.0
20260830131011 52 186 1.0 3.0 0.00 0.00 0.00 90 1032.1
20260830130011 52 186 1.0 2.0 0.00 0.00 0.00 90 1032.1
20260830125010 52 186 1.0 3.0 0.00 0.00 0.00 90 1032.2
20260830124011 52 186 1.0 3.0 0.00 0.00 0.00 90 1032.2
20260830123011 51 186 1.0 3.0 0.00 0.00 0.00 90 1032.2
20260830122013 50 186 0.0 0.0 0.00 0.00 0.00 90 1032.1
20260830120011 50 186 0.0 0.0 0.00 0.00 0.00 90 1032.1
20260830115011 50 186 0.0 0.0 0.00 0.00 0.00 89 1032.0